[[{"header":{"parameterUnit":"m.s-1","parameterCategory":1,"la1":30.2992,"la2":30.254,"lo1":-89.0895,"lo2":-89.0443,"dy":0.0025,"dx":0.0025,"nx":19,"ny":19,"refTime":"2026-03-11T21:00:00:Z","depth":0,"parameterNumber":2,"parameterNumberName":"U-component_of_WINDS"},"data":[0,0,0,0.2302,0.2302,0.2274,0.2274,0.2238,0.2238,0,0,0,0,0,0,0,0,0,0,0,0.2311,0.231,0.2302,0.2302,0.2274,0.2274,0.2238,0.2238,0,0,0,0,0,0,0,0,0,0,0,0.2311,0.2311,0.231,0.2302,0.2274,0.2274,0.2238,0.2259,0,0,0,0,0,0,0,0,0,0,0.2286,0.2294,0.2311,0.231,0.2301,0.2274,0.2274,0.226,0.2258,0.2251,0,0.2245,0,0.2241,0.2235,0.2235,0,0,0,0.2301,0.2296,0.2288,0.231,0.2301,0.2274,0.2286,0.2259,0.2256,0.2248,0.2244,0.2243,0.224,0.2235,0.2235,0.2197,0.2197,0,0,0.2303,0.2305,0.229,0.2287,0.2291,0.2287,0.2285,0.2257,0.2253,0.2244,0.2242,0.2239,0.2235,0.2234,0.2197,0.2197,0,0,0,0.2307,0.2307,0.23,0.2288,0.2283,0.2286,0.2284,0.2254,0.2252,0.2242,0.2239,0.2234,0.2234,0.2197,0.2197,0.2192,0,0,0,0.2308,0.2309,0.23,0.2302,0.2284,0.2269,0.2282,0.2254,0.2251,0.2239,0.2234,0.2234,0.2198,0.2197,0.2193,0.2189,0,0,0,0.2312,0.231,0.2306,0.2302,0.229,0.2269,0.2265,0.2253,0.2249,0.2235,0.2234,0.2198,0.2197,0.2193,0.219,0.218,0,0,0,0.2317,0.2301,0.2306,0.2287,0.229,0.2267,0.2265,0.2247,0.2234,0.2234,0.2198,0.2197,0.2193,0.219,0.218,0.2172,0.2169,0,0,0.2298,0.2299,0.2287,0.2291,0.2267,0.2271,0.2246,0.2231,0.2227,0.2207,0.2206,0.2192,0.219,0.218,0.2152,0.2149,0,0,0,0.2282,0.2274,0.2267,0.2256,0.2245,0.2235,0.2225,0.2219,0.2203,0.2217,0.2187,0.2185,0.2179,0.2175,0.2173,0.2168,0.2196,0.2196,0.2196,0.2257,0.2255,0.2236,0.223,0.2219,0.2209,0.22,0.2191,0.219,0.2183,0.2176,0.216,0.2155,0.2153,0.2148,0.2172,0.2172,0.2172,0.2172,0.2229,0.2217,0.2218,0.22,0.2197,0.2182,0.2172,0.2173,0.2158,0.2164,0.2158,0.2164,0.2151,0.2146,0.2172,0.2172,0.2172,0.2172,0.2172,0.2212,0.2206,0.2201,0.2185,0.2173,0.2168,0.2155,0.2152,0.215,0.2145,0.2138,0.2138,0.2138,0.2142,0.2142,0.2142,0.2142,0.2142,0.2142,0.2196,0.219,0.218,0.2169,0.2162,0.2153,0.2144,0.2137,0.2129,0.2128,0.2128,0.2128,0.215,0.2156,0.2141,0.2141,0.2141,0.2141,0.2141,0.2166,0.2173,0.2156,0.215,0.2137,0.2127,0.2125,0.2111,0.2106,0.2099,0.2101,0.2118,0.2118,0.212,0.2124,0.2102,0.2102,0.2102,0.2102,0.2151,0.2152,0.2135,0.2125,0.2115,0.2112,0.2094,0.2088,0.2082,0.2079,0.2082,0.2088,0.209,0.2089,0.2091,0.2095,0.2066,0.2066,0.2066,0.2133,0.2133,0.2118,0.2114,0.2104,0.2096,0.2079,0.2068,0.2063,0.2064,0.2076,0.2078,0.2087,0.209,0.209,0.2094,0.2101,0,0]},{"header":{"parameterUnit":"m.s-1","parameterCategory":1,"la1":30.2992,"la2":30.254,"lo1":-89.0895,"lo2":-89.0443,"dy":0.0025,"dx":0.0025,"nx":19,"ny":19,"refTime":"2026-03-11T21:00:00:Z","depth":0,"parameterNumber":3,"parameterNumberName":"V-component_of_WINDS"},"data":[0,0,0,-8.3973,-8.3976,-8.4119,-8.4119,-8.4301,-8.4303,0,0,0,0,0,0,0,0,0,0,0,-8.3934,-8.3935,-8.3973,-8.3977,-8.4119,-8.4119,-8.4301,-8.4303,0,0,0,0,0,0,0,0,0,0,0,-8.3933,-8.3935,-8.3937,-8.3977,-8.4119,-8.4119,-8.43,-8.4192,0,0,0,0,0,0,0,0,0,0,-8.4054,-8.4021,-8.3935,-8.3937,-8.3978,-8.4118,-8.4119,-8.4187,-8.4199,-8.4238,0,-8.4275,0,-8.4292,-8.4315,-8.4316,0,0,0,-8.3973,-8.4011,-8.4048,-8.3937,-8.3979,-8.4118,-8.4054,-8.4194,-8.4207,-8.4254,-8.4278,-8.4285,-8.4295,-8.4316,-8.4317,-8.456,-8.4562,0,0,-8.3966,-8.396,-8.4038,-8.4056,-8.4038,-8.4049,-8.4058,-8.4202,-8.4227,-8.4279,-8.4289,-8.4298,-8.4318,-8.4319,-8.4559,-8.4561,0,0,0,-8.3945,-8.3954,-8.3987,-8.4049,-8.4075,-8.4053,-8.4064,-8.422,-8.4232,-8.4291,-8.4301,-8.4319,-8.4321,-8.4558,-8.456,-8.4621,0,0,0,-8.394,-8.3943,-8.3984,-8.3982,-8.4073,-8.415,-8.4079,-8.4222,-8.4238,-8.43,-8.4319,-8.4323,-8.4556,-8.4559,-8.4616,-8.465,0,0,0,-8.3923,-8.3941,-8.3963,-8.3981,-8.4043,-8.4148,-8.4167,-8.4225,-8.4244,-8.4316,-8.4323,-8.4555,-8.4558,-8.4612,-8.4643,-8.4714,0,0,0,-8.3903,-8.4011,-8.3964,-8.4088,-8.4042,-8.4186,-8.4167,-8.4273,-8.4341,-8.432,-8.4557,-8.456,-8.4611,-8.4639,-8.471,-8.4774,-8.48,0,0,-8.4036,-8.4027,-8.4101,-8.4063,-8.4214,-8.4164,-8.4324,-8.4389,-8.4398,-8.4505,-8.4511,-8.4618,-8.4642,-8.4713,-8.4948,-8.4969,0,0,0,-8.4141,-8.4194,-8.4236,-8.4304,-8.436,-8.4411,-8.4453,-8.4478,-8.457,-8.4454,-8.4662,-8.4677,-8.4719,-8.475,-8.4767,-8.4804,-8.4574,-8.4573,-8.4573,-8.4319,-8.4331,-8.4455,-8.4484,-8.455,-8.4596,-8.465,-8.4691,-8.4678,-8.4728,-8.4759,-8.4901,-8.4937,-8.495,-8.4988,-8.4793,-8.4794,-8.4794,-8.4794,-8.4517,-8.4594,-8.4582,-8.4698,-8.4708,-8.4804,-8.4853,-8.4842,-8.4932,-8.4877,-8.4914,-8.4854,-8.4973,-8.5007,-8.4799,-8.4798,-8.4797,-8.4797,-8.4796,-8.4635,-8.4675,-8.4707,-8.4809,-8.4886,-8.4911,-8.5,-8.5005,-8.5009,-8.5046,-8.5081,-8.508,-8.5081,-8.5063,-8.5063,-8.5064,-8.5064,-8.5065,-8.5065,-8.4746,-8.478,-8.4857,-8.493,-8.4976,-8.5037,-8.5087,-8.5131,-8.5181,-8.5177,-8.5178,-8.5162,-8.4983,-8.4939,-8.5073,-8.5071,-8.507,-8.5069,-8.5069,-8.4942,-8.49,-8.5018,-8.5065,-8.5152,-8.523,-8.5237,-8.5328,-8.5365,-8.5409,-8.5386,-8.5253,-8.5242,-8.5228,-8.5192,-8.5383,-8.5383,-8.5383,-8.5383,-8.5043,-8.504,-8.5164,-8.524,-8.5314,-8.5334,-8.5466,-8.5506,-8.554,-8.5564,-8.5537,-8.5488,-8.5474,-8.5472,-8.5452,-8.5418,-8.5663,-8.5663,-8.5663,-8.5165,-8.517,-8.5283,-8.5321,-8.539,-8.5449,-8.5575,-8.566,-8.5688,-8.5675,-8.5583,-8.5571,-8.5493,-8.5467,-8.545,-8.5419,-8.5357,0,0]}]]